User: anonymous
Location: Oronoko Observatory
(41.9167°N, 86.3833°W)
Time: 00:25:01
(UTC-04:00)
Language:

PAYLOAD A - Orbit

View from above orbital plane
View from above orbital plane
View from above satellite
View from above satellite

Ground track
Ground track

The orbit data is extracted from the following two-line orbital elements,

1 27840U 03031A   14243.81438325  .00000024  00000-0  21274-4 0  6258
2 27840 098.2324 269.3694 0097346 314.9461 204.5417 14.38720248586581
Epoch (UTC): 31 August 2014 19:32:42
Eccentricity: 0.0097346
inclination: 98.2324°
perigee height: 693 km
apogee height: 832 km
right ascension of ascending node: 269.3694°
argument of perigee: 314.9461°
revolutions per day: 14.38720248
mean anomaly at epoch: 204.5417°
orbit number at epoch: 58658

The dashed part of the orbit path shows where the satellite is in the earth's shadow,  

DLR